User: anonymous   Login
Location: Raleigh
(35.7720°N, 78.6390°W)
Time: 02:48:46
(UTC-04:00)
Language:

JAS-2 - Orbit

View from above orbital plane
View from above orbital plane
View from above satellite
View from above satellite

Ground track
Ground track

The orbit data is extracted from the following two-line orbital elements,

1 24278U 96046B   16150.38784642 -.00000014  00000-0  24558-4 0  9997
2 24278  98.5855  78.0614 0349391 251.2511 105.0420 13.53067702976971
Epoch (UTC): 29 May 2016 09:18:29
Eccentricity: 0.0349391
inclination: 98.5855°
perigee height: 801 km
apogee height: 1321 km
right ascension of ascending node: 78.0614°
argument of perigee: 251.2511°
revolutions per day: 13.53067702
mean anomaly at epoch: 105.0420°
orbit number at epoch: 97697

The dashed part of the orbit path shows where the satellite is in the earth's shadow,  

DLR